TimeEST,TemperatureF,Dew PointF,Humidity,Sea Level PressureIn,VisibilityMPH,Wind Direction,Wind SpeedMPH,Gust SpeedMPH,PrecipitationIn,Events,Conditions,WindDirDegrees,DateUTC
12:56 AM,25.0,12.0,58,30.17,10.0,East,5.8,-,N/A,,Overcast,80,2013-12-17 05:56:00
1:31 AM,24.8,12.2,59,30.15,10.0,East,5.8,-,N/A,,Overcast,100,2013-12-17 06:31:00
1:56 AM,25.0,12.0,58,30.17,9.0,ESE,8.1,-,0.00,,Overcast,110,2013-12-17 06:56:00
2:47 AM,24.8,15.8,69,30.14,2.5,ESE,6.9,-,0.00,Snow,Light Snow,110,2013-12-17 07:47:00
2:56 AM,24.1,17.1,75,30.15,1.5,ESE,8.1,-,0.00,Snow,Light Snow,110,2013-12-17 07:56:00
3:16 AM,24.8,17.6,74,30.14,0.5,ESE,6.9,-,0.01,Snow,Snow,110,2013-12-17 08:16:00
3:56 AM,23.0,19.0,85,30.14,0.5,ESE,6.9,-,0.02,Snow,Snow,110,2013-12-17 08:56:00
4:46 AM,23.0,19.4,86,30.12,3.0,ESE,5.8,-,0.02,Snow,Light Snow,110,2013-12-17 09:46:00
4:56 AM,23.0,19.0,85,30.13,3.0,ESE,5.8,-,0.02,Snow,Light Snow,110,2013-12-17 09:56:00
5:33 AM,23.0,19.4,86,30.11,2.0,ESE,6.9,-,0.01,Snow,Light Snow,110,2013-12-17 10:33:00
5:56 AM,23.0,19.0,85,30.12,2.0,East,5.8,-,0.01,Snow,Light Snow,100,2013-12-17 10:56:00
6:03 AM,23.0,19.4,86,30.11,3.0,East,5.8,-,0.00,Snow,Light Snow,90,2013-12-17 11:03:00
6:47 AM,23.0,19.4,86,30.10,2.5,East,6.9,-,0.00,Snow,Light Snow,100,2013-12-17 11:47:00
6:56 AM,23.0,19.0,85,30.12,2.5,ESE,6.9,-,0.00,Snow,Light Snow,120,2013-12-17 11:56:00
6:58 AM,23.0,19.4,86,30.10,3.0,ESE,8.1,-,0.00,Snow,Light Snow,110,2013-12-17 11:58:00
7:56 AM,24.1,19.0,81,30.12,2.5,ESE,5.8,-,0.00,Snow,Light Snow,110,2013-12-17 12:56:00
8:14 AM,24.8,19.4,80,30.09,3.0,East,5.8,-,0.00,,Haze,100,2013-12-17 13:14:00
8:37 AM,24.8,19.4,80,30.08,1.8,ESE,6.9,-,0.00,Snow,Light Snow,110,2013-12-17 13:37:00
8:46 AM,24.8,19.4,80,30.08,0.8,East,8.1,-,0.00,Snow,Light Snow,100,2013-12-17 13:46:00
8:54 AM,24.8,19.4,80,30.08,0.5,East,8.1,-,0.01,Fog-Snow,Light Snow,100,2013-12-17 13:54:00
8:56 AM,24.1,19.9,84,30.09,0.5,East,6.9,-,0.01,Fog-Snow,Light Snow,100,2013-12-17 13:56:00
9:05 AM,24.8,19.4,80,30.08,0.8,East,6.9,-,0.00,Snow,Light Snow,100,2013-12-17 14:05:00
9:40 AM,24.8,19.4,80,30.07,1.5,ESE,5.8,-,0.01,Snow,Light Snow,110,2013-12-17 14:40:00
9:56 AM,24.1,19.9,84,30.08,1.8,East,5.8,-,0.01,Snow,Light Snow,90,2013-12-17 14:56:00
10:03 AM,24.8,19.4,80,30.06,2.0,East,5.8,-,0.00,Snow,Light Snow,100,2013-12-17 15:03:00
10:10 AM,24.8,19.4,80,30.06,1.8,East,6.9,-,0.00,Snow,Light Snow,100,2013-12-17 15:10:00
10:42 AM,24.8,19.4,80,30.04,4.0,ESE,5.8,-,0.00,,Haze,110,2013-12-17 15:42:00
10:56 AM,25.0,19.9,81,30.06,4.0,East,5.8,-,0.00,,Haze,100,2013-12-17 15:56:00
11:56 AM,25.0,19.9,81,30.03,3.0,NNE,4.6,-,N/A,,Haze,20,2013-12-17 16:56:00
12:08 PM,24.8,19.4,80,30.01,2.0,NNE,3.5,-,0.00,Snow,Light Snow,30,2013-12-17 17:08:00
12:56 PM,24.1,19.0,81,30.01,2.0,NNE,5.8,-,0.00,Snow,Light Snow,30,2013-12-17 17:56:00
1:10 PM,24.8,19.4,80,29.99,1.5,North,6.9,-,0.00,Snow,Light Snow,10,2013-12-17 18:10:00
1:39 PM,24.8,21.2,86,29.97,1.8,East,3.5,-,0.01,Snow,Light Snow,90,2013-12-17 18:39:00
1:43 PM,24.8,19.4,80,29.96,2.0,Calm,Calm,-,0.01,Snow,Light Snow,0,2013-12-17 18:43:00
1:50 PM,24.8,19.4,80,29.97,3.0,Calm,Calm,-,0.01,,Haze,0,2013-12-17 18:50:00
1:56 PM,26.1,21.0,81,29.98,4.0,ESE,3.5,-,0.01,,Haze,110,2013-12-17 18:56:00
2:09 PM,26.6,19.4,74,29.96,4.0,Calm,Calm,-,N/A,,Haze,0,2013-12-17 19:09:00
2:56 PM,27.0,21.0,78,29.98,4.0,Calm,Calm,-,N/A,,Haze,0,2013-12-17 19:56:00
3:32 PM,26.6,19.4,74,29.97,4.0,Calm,Calm,-,N/A,,Haze,0,2013-12-17 20:32:00
3:56 PM,27.0,19.9,75,30.00,4.0,Calm,Calm,-,N/A,,Haze,0,2013-12-17 20:56:00
4:56 PM,27.0,21.0,78,29.99,5.0,Calm,Calm,-,N/A,,Haze,0,2013-12-17 21:56:00
5:56 PM,26.1,19.9,78,29.99,5.0,Calm,Calm,-,N/A,,Haze,0,2013-12-17 22:56:00
6:56 PM,23.0,19.0,85,30.00,5.0,Calm,Calm,-,N/A,,Mostly Cloudy,0,2013-12-17 23:56:00
7:56 PM,21.9,19.0,89,30.00,4.0,NNW,3.5,-,N/A,,Mostly Cloudy,340,2013-12-18 00:56:00
8:56 PM,23.0,19.9,88,29.99,4.0,NW,5.8,-,N/A,,Mostly Cloudy,320,2013-12-18 01:56:00
9:56 PM,21.9,19.9,92,29.98,4.0,Calm,Calm,-,N/A,,Mostly Cloudy,0,2013-12-18 02:56:00
10:56 PM,21.9,19.0,89,29.99,3.0,NW,8.1,-,N/A,,Mostly Cloudy,320,2013-12-18 03:56:00
11:56 PM,24.1,21.0,88,30.01,4.0,Calm,Calm,-,N/A,,Overcast,0,2013-12-18 04:56:00